Tracking 19909 objects as of 22-Oct-2019
HD Live streaming from Space Station
objects crossing your sky now

IUS DEB

Track IUS DEB now!
10-day predictions


NORAD ID: 43364
Int'l Code: 1999-040M
Perigee: 744.7 km
Apogee: 9,530.8 km
Inclination: 28.1 °
Period: 204.8 minutes
Semi major axis: 11508 km
RCS: Unknown
Launch date: July 23, 1999
Source: United States (US)
Launch site: AIR FORCE EASTERN TEST RANGE (AFETR)

Note: This is SATELLITE DEBRIS
aabbcc
Your satellite tracking list
Your tracking list is empty




NASA's NSSDC Master Catalog

Two Line Element Set (TLE):
1 43364U 99040M   19217.08465771 -.00000786  00000-0 -39386-2 0  9994
2 43364  28.1403 149.5991 3817099 204.8330 130.6438  7.03170825968275
Source of the keplerian elements: AFSPC